Location: Gleizolles
(44.4833°N, 6.7667°E)
Time: 21:53:46
(UTC+00:00)

A-11 Canister half - Pass Details

Date: 27 June 2024
Orbit: 1524 x 1684 km, 47.3° (Epoch: 18 July)

Event Time Altitude Azimuth Distance (km) Brightness Sun altitude
Rises 09:44:45 0° 208° (SSW) 4,800 11.6 58.9°
Reaches altitude 10° 09:48:09 10° 201° (SSW) 3,794 11.3 59.4°
Maximum altitude 09:56:44 39° 137° (SE) 2,198 11.4 60.7°
Drops below altitude 10° 10:05:07 10° 73° (ENE) 3,711 11.4 61.8°
Sets 10:08:22 0° 66° (ENE) 4,685 11.7 62.2°
